Location: El Centro
(32.5316°N, 116.7601°W)
Time: 01:11:31
(UTC+00:00)

Daily predictions for brighter satellites

Satellite Brightness Start Highest point End
(mag) Time Altitude Azimuth Time Altitude Azimuth Time Altitude Azimuth
NOSS 3-3 (A) 3.8 02:58:08 10° SSW 03:03:32 62° ESE 03:09:31 10° NE
NOSS 3-3 (C) 3.8 02:58:14 10° SSW 03:03:39 61° ESE 03:09:38 10° NE
Cosmos 1486 Rocket 4.4 02:59:09 10° SSW 03:04:27 74° WNW 03:09:49 10° NNE
HJ-1C 3.9 03:02:02 10° S 03:05:18 61° W 03:08:36 10° NNW
SL-4 R/B 2.3 03:01:42 10° NW 03:06:04 88° NE 03:10:44 10° SE
Centaur D-1AR AC-36 3.4 03:02:58 10° SW 03:07:38 20° S 03:10:21 10° SE
Cosmos 1844 4.4 03:07:21 10° SSW 03:13:00 61° WNW 03:18:38 10° NNE
Cosmos 1689 Rocket 3.4 03:10:27 10° N 03:13:05 40° WNW 03:15:43 10° SSW
USA 186 2.0 03:10:54 10° SE 03:13:11 30° ENE 03:15:21 10° NNE
Cosmos 1242 Rocket 3.2 03:11:07 10° SSE 03:14:20 33° E 03:17:33 10° NNE
GPS 2-04 Rocket1 3.2 03:14:00 10° W 03:18:08 64° N 03:22:12 10° ENE
Resurs 01 Rocket 3.7 03:19:37 10° E 03:21:28 12° ENE 03:23:19 10° NE
SL-08 ROCKET BODY 4.3 03:16:01 10° N 03:21:51 67° E 03:27:39 10° SSE
X-37B 3.0 03:21:28 10° NNW 03:23:35 16° NNE 03:25:41 10° ENE
S3M 4.0 03:22:56 10° S 03:29:16 72° E 03:35:34 10° N
OBJECT-B 1.0 03:28:49 12° SSE 03:31:37 49° ENE 03:34:46 10° N
Delta 2 Rocket 3.8 03:29:09 10° WSW 03:34:32 86° NNW 03:39:20 10° ENE
Cosmos 1437 Rocket 4.2 03:33:23 10° SSW 03:37:02 41° W 03:40:47 10° N
ERS-2 3.3 03:33:48 10° N 03:37:17 46° WNW 03:40:45 10° SSW
Cosmos 1805 Rocket 3.5 03:34:42 10° N 03:39:03 70° E 03:43:23 10° SSE
Cosmos 2315 Rocket 4.4 03:34:11 10° SSE 03:40:08 43° E 03:46:07 10° NNE
Cosmos 1633 Rocket 4.2 03:39:46 10° NNE 03:43:27 25° ENE 03:45:05 20° ESE
Cosmos 1328 Rocket 4.2 03:42:02 15° SSE 03:45:08 36° E 03:49:11 10° NNE
ISS -3.0 03:42:19 10° SSW 03:45:18 30° SE 03:46:50 20° E
Milstar 3 4.4 03:26:24 10° WSW 03:46:31 64° S 03:56:12 11° E
Helios 1A Rocket 3.9 03:44:28 10° S 03:48:27 47° W 03:52:27 10° NNW
USA 290 2.1 03:47:45 10° NNW 03:50:59 84° ENE 03:52:36 27° SSE
Cosmos 1777 Rocket 3.9 03:49:16 10° S 03:54:23 66° ESE 03:59:32 10° NNE
USA 267 3.4 03:50:29 16° SSE 03:55:53 69° SW 04:02:26 10° NW
Cosmos 1437 2.6 03:57:11 46° ESE 03:57:24 47° E 04:00:08 10° NNE
Tianhe-1 0.9 03:55:45 10° SW 03:58:51 74° SSE 04:00:18 29° ENE
Cosmos 1602 4.1 03:56:10 10° N 03:59:54 45° E 04:01:07 33° SE
Ariane Rocket 2.9 03:57:01 20° SSE 04:00:32 71° ENE 04:05:35 10° N
Meteor 1-26 Rocket 4.1 03:55:50 10° S 04:01:34 85° E 04:07:07 10° N
Cosmos 1933 4.4 03:59:23 10° SSW 04:03:15 46° W 04:07:08 10° N
Cosmos 2082 Rocket 4.2 04:01:21 10° NE 04:03:20 12° NE 04:05:04 10° ENE
Resurs 1-3 3.5 04:04:41 26° SSE 04:07:05 76° ENE 04:11:27 10° N
Cosmos 1782 2.8 04:05:13 12° S 04:08:50 82° W 04:12:50 10° N
OAO 3 Rocket 3.0 04:05:04 10° WSW 04:09:40 67° SSE 04:12:04 28° E
Cosmos 1812 3.1 04:12:33 40° E 04:12:37 40° E 04:16:15 10° NNE
Cosmos 1666 Rocket 3.4 04:09:41 10° N 04:14:03 76° E 04:15:46 36° SSE
SJ 16-02 1.5 04:13:23 36° SSE 04:14:46 51° ESE 04:19:04 10° NNE
DELTA 2 R/B (1) 3.6 04:11:22 10° WNW 04:16:55 71° SSW 04:19:08 37° SE
COSMOS 2406 4.1 04:12:26 10° N 04:17:28 32° ENE 04:19:01 28° E
SJ-6B 4.4 04:16:43 12° SSW 04:19:55 32° W 04:23:29 10° NNW
Cosmos 2278 Rocket 2.2 04:15:29 10° SSW 04:21:08 83° WNW 04:26:49 10° NNE
Sich 1 4.0 04:17:30 10° NNW 04:21:40 45° W 04:24:55 16° SSW
Meteor 2-6 Rocket 4.2 04:23:08 36° SSE 04:25:07 56° E 04:30:28 10° NNE
Landsat 7 4.0 04:24:44 44° ESE 04:25:42 52° ENE 04:30:20 10° N
Cosmos 1151 Rocket 3.9 04:23:16 10° SSW 04:27:27 49° W 04:31:43 10° N
Meteor 1-14 Rocket 4.3 04:22:01 10° N 04:27:43 59° E 04:29:27 41° SE
BREEZE-M DEB (TANK) 3.6 04:35:19 10° WNW 04:37:49 34° SW 04:37:53 34° SW
ATLAS 5 CENTAUR R/B 2.9 04:33:45 10° NW 04:39:47 61° WSW 04:42:54 32° S
IGS 5A 3.3 04:40:06 76° S 04:40:25 89° W 04:44:34 10° NNW
SPOT 1/Viking Rocket 3.6 04:44:07 53° E 04:44:39 55° ENE 04:49:43 10° N
CZ-4C R/B 3.2 04:39:09 10° NNW 04:46:50 67° ENE 04:49:57 42° SE
Mugunghwa Rocket 4.1 04:41:35 10° WSW 04:47:44 52° S 04:48:30 49° SSE
BREEZE-M DEB (TANK) 3.2 04:44:04 10° NW 04:48:59 54° N 04:48:59 54° N
Cosmos 1500 3.6 04:48:15 10° N 04:51:25 58° NW 04:51:25 58° NW
Cosmos 2228 Rocket 4.1 04:58:50 36° NE 04:58:50 36° NE 05:01:42 10° NNE
Resurs 01 Rocket 2.3 04:56:46 44° SW 04:57:29 48° W 05:01:47 10° NNW
GPS 2-04 Rocket1 3.3 04:53:47 10° WNW 04:57:28 54° NNW 04:57:28 54° NNW
CZ-2C R/B 4.5 04:55:15 10° N 04:59:38 50° WNW 05:01:24 32° SW
SPOT 3 Rocket 3.9 04:58:57 48° SSW 05:00:05 59° WSW 05:05:10 10° NNW
X-37B 2.9 04:57:21 10° NW 04:58:52 25° WNW 04:58:52 25° WNW
Cosmos 1833 Rocket 2.5 04:57:16 10° NNW 05:02:57 83° ENE 05:03:23 76° SE
ATLAS 2AS CENTAUR R/B 4.0 04:59:34 10° N 05:05:20 25° NE 05:07:06 23° ENE
Nadezhda 1 Rocket 4.0 05:06:24 60° E 05:06:34 60° E 05:12:43 10° NNE
Spot 2 Rocket 3.6 05:08:20 65° NE 05:08:20 65° NE 05:12:57 10° N
ERS-1 Rocket 3.8 05:09:54 40° NE 05:09:54 40° NE 05:13:48 10° N
Cosmos 2184 Rocket 3.8 05:04:21 10° N 05:10:32 69° E 05:10:49 68° ESE
Meteor 1-11 Rocket 4.1 05:05:12 10° N 05:10:37 51° ENE 05:10:37 51° ENE
Cosmos 1538 Rocket 3.9 05:05:43 10° NNW 05:10:57 86° N 05:10:57 86° N
Cosmos 2074 Rocket 3.8 05:06:05 10° N 05:12:23 75° E 05:12:51 71° ESE
Meteor 1-5 Rocket 4.1 05:10:56 10° NNW 05:16:13 69° W 05:16:22 69° WSW
Delta 2 Rocket 4.2 05:12:17 10° W 05:16:44 54° NNW 05:16:44 54° NNW
USA 307 4.5 05:16:15 10° NNW 05:19:05 30° N 05:19:05 30° N
Cosmos 1271 Rocket 4.3 05:22:02 35° NW 05:22:02 35° NW 05:25:01 10° N
ISS -0.8 05:19:29 10° W 05:20:14 14° WNW 05:20:14 14° WNW
Cosmos 2297 4.0 05:23:59 56° NE 05:23:59 56° NE 05:28:29 10° NNE
Cosmos 967 Rocket 4.4 05:29:59 75° WSW 05:30:30 82° WNW 05:36:48 10° NNE
Terra 3.1 05:34:53 34° NNE 05:34:53 34° NNE 05:37:46 10° N
GOES 2 Rocket 4.4 05:24:20 10° W 05:33:34 67° S 05:33:34 67° S
ARIANE 5 R/B 4.3 05:46:13 31° NW 05:46:13 31° NW 05:48:47 10° NNW
Cosmos 2082 Rocket 2.6 05:42:25 10° NNW 05:46:55 59° NNW 05:46:55 59° NNW
SPOT 5 3.9 05:52:03 48° NW 05:52:03 48° NW 05:55:54 10° NNW
SJ 16-02 4.4 05:52:11 10° W 05:53:36 11° WNW 05:55:02 10° NW
Cosmos 1898 Rocket 4.4 05:54:30 46° NW 05:54:30 46° NW 05:58:49 10° N
Cosmos 1943 Rocket 3.0 06:02:07 46° N 06:02:07 46° N 06:06:05 10° NNE
Cosmos 2369 Rocket 3.8 06:14:45 27° NNE 06:14:45 27° NNE 06:17:15 10° NNE
Milstar 3 3.7 06:19:27 10° W 06:29:47 56° WSW 06:29:47 56° WSW
CZ-4C R/B 4.4 06:28:51 10° WNW 06:35:09 26° WSW 06:35:09 26° WSW
ATLAS 2AS CENTAUR R/B 3.6 06:49:48 10° NW 06:54:32 41° WNW 06:54:32 41° WNW
Lacrosse 5 4.3 08:06:31 19° NNE 08:06:31 19° NNE 08:08:11 10° NNE
Resurs 1-4 Rocket 4.4 08:18:46 10° NE 08:20:20 16° ENE 08:20:20 16° ENE
USA 215 4.5 08:26:21 26° E 08:29:00 36° NE 08:34:52 10° NNW
Cosmos 2227 Rocket 4.1 08:47:23 10° N 08:51:46 22° ENE 08:52:41 22° ENE
Cosmos 2297 Rocket 3.7 08:49:33 10° N 08:54:12 31° NE 08:54:12 31° NE
Cosmos 2123 Rocket 4.5 09:18:35 55° ENE 09:18:35 55° ENE 09:23:51 10° NNE
Cosmos 2100 Rocket 4.4 09:12:19 10° N 09:17:29 61° NNE 09:17:29 61° NNE
Cosmos 1802 Rocket 4.4 09:14:55 10° N 09:20:19 56° NE 09:20:19 56° NE
COSMOS 2455 3.5 09:26:21 10° NNW 09:30:33 47° NNW 09:30:33 47° NNW
Lacrosse 4 Rocket 3.3 09:38:55 30° NNE 09:38:55 30° NNE 09:41:12 10° NNE
Cosmos 2219 3.6 09:33:43 10° NNW 09:38:34 60° NNE 09:38:34 60° NNE
SL-16 R/B 2.5 09:45:41 79° NNW 09:45:41 79° NNW 09:51:33 10° NNW
ADEOS II 2.5 09:43:21 10° NNE 09:47:49 59° NE 09:47:49 59° NE
NPP 4.3 09:51:21 10° N 09:55:31 46° NNW 09:55:31 46° NNW
CZ-2D R/B 3.1 09:51:57 10° N 09:55:45 36° NW 09:55:45 36° NW
SL-08 R/B 4.4 09:51:18 10° N 09:57:42 85° E 09:58:09 78° SSE
Resurs 1-4 Rocket 3.3 09:57:52 10° N 10:01:25 32° NW 10:01:25 32° NW
Meteor 2-5 Rocket 4.0 10:04:04 56° ESE 10:04:41 59° E 10:10:14 10° NNE
ADEOS Rocket 4.0 09:59:24 18° SE 10:04:51 57° ENE 10:12:24 10° N
Cosmos 1697 Rocket 3.4 10:05:50 40° NW 10:05:50 40° NW 10:10:28 10° N
Cosmos 407 Rocket 3.9 10:03:19 10° N 10:08:37 60° ENE 10:09:48 48° ESE
GP-B 3.8 10:04:33 10° N 10:08:12 53° NE 10:08:12 53° NE
Atlas Centaur 2 3.5 10:11:03 36° SSE 10:11:03 36° SSE 10:17:11 10° E
USA 215 3.7 10:13:35 43° W 10:13:35 43° W 10:18:10 10° NW
Cosmos 1624 Rocket 4.1 10:12:43 67° NW 10:12:43 67° NW 10:17:36 10° NNE
Meteor 1-16 Rocket 4.5 10:08:14 10° NNW 10:13:22 57° WNW 10:13:22 57° WNW
Cosmos 1725 Rocket 3.8 10:07:56 10° NNW 10:14:07 69° W 10:14:14 69° W
Cosmos 1626 4.4 10:17:00 19° NNW 10:17:00 19° NNW 10:18:11 10° N
CBERS-1 3.9 10:11:34 10° NNE 10:16:41 83° ESE 10:16:43 83° ESE
Cosmos 1980 Rocket 2.2 10:17:42 68° WNW 10:17:45 68° WNW 10:23:24 10° NNE
USA 281 3.9 10:22:58 36° W 10:22:58 36° W 10:27:44 10° NW
Cosmos 2233 Rocket 3.9 10:16:46 10° N 10:22:58 87° E 10:24:41 51° S
CENTAUR R/B 4.0 10:21:27 18° SE 10:23:51 23° ESE 10:28:33 10° ENE
Cosmos 2016 Rocket 4.4 10:22:15 10° NNW 10:27:38 42° W 10:27:38 42° W
DELTA 2 DEB (DPAF) 4.3 10:29:20 64° NNW 10:29:20 64° NNW 10:33:09 10° NNW
Cosmos 1452 Rocket 4.1 10:30:10 39° SSE 10:31:38 51° ESE 10:36:45 10° NNE
ATLAS 2A CENTAUR R/B 3.7 10:32:55 14° SE 10:32:55 14° SE 10:35:28 10° ESE
Cosmos 220 Rocket 4.0 10:33:33 74° ESE 10:33:37 74° ESE 10:38:03 10° NNE
Cosmos 2056 Rocket 4.0 10:34:18 42° WNW 10:34:18 42° WNW 10:38:56 10° N
Cosmos 1300 3.1 10:31:26 10° N 10:34:41 60° NNE 10:34:41 60° NNE
Cosmos 2227 Rocket 3.0 10:30:39 10° NW 10:34:26 34° WNW 10:34:26 34° WNW
Cosmos 2297 Rocket 3.8 10:33:41 10° NW 10:35:57 21° WNW 10:35:57 21° WNW
Cosmos 2278 4.0 10:39:29 47° W 10:40:12 49° WNW 10:45:44 10° N
Cosmos 1346 Rocket 4.4 10:39:36 23° SE 10:41:01 30° E 10:44:27 10° NNE
Cosmos 2285 Rocket 4.3 10:40:00 44° WSW 10:41:13 49° WNW 10:47:26 10° N
Cosmos 1023 Rocket 4.4 10:39:36 10° NNW 10:44:48 66° WSW 10:45:44 55° SSW
CZ-2C R/B 4.2 10:44:12 10° NE 10:48:41 29° E 10:53:08 10° SSE
SEDSat Delta rocket 4.3 10:48:20 34° S 10:48:46 34° SSE 10:53:18 10° E
OAO 2 Rocket 3.6 10:47:16 39° WNW 10:49:12 69° N 10:54:31 10° ENE
IRS-1C 4.0 10:44:13 10° NNE 10:49:34 85° WNW 10:51:22 44° SSW
Cosmos 2082 3.6 10:46:08 10° NNW 10:51:46 64° WSW 10:54:30 31° S
SL-16 R/B 2.5 10:50:34 30° S 10:53:18 61° ESE 10:58:53 10° NNE
Cosmos 1340 3.7 10:59:12 32° NW 10:59:12 32° NW 11:01:55 10° NNW
MSX 3.8 10:53:58 10° N 10:59:44 74° WNW 11:02:20 34° SSW
SL-08 R/B 4.0 10:55:28 10° SSE 11:00:04 54° ENE 11:04:36 10° N
Cosmos 1892 Rocket 3.9 10:58:35 28° SSE 11:00:42 61° E 11:04:58 10° NNE
Cosmos 1140 Rocket 3.8 10:57:36 10° NNW 11:02:32 44° WSW 11:03:23 41° SW
OAO 1 Rocket 4.4 11:01:43 39° WSW 11:03:44 89° NNW 11:09:06 10° ENE
BREEZE-M DEB (TANK) 4.3 11:06:06 14° NW 11:06:34 14° NW 11:08:12 10° N
IDEFIX/ARIANE 42P 3.2 11:04:10 10° N 11:09:01 39° WNW 11:10:31 32° WSW
OAO 3 Copernicus 4.3 11:08:21 39° SW 11:10:09 72° SSE 11:15:12 10° ENE
NOSS 3-2 (C) 3.7 11:12:09 20° S 11:15:44 54° ESE 11:21:31 10° NE
Okean 1-7 Rocket 4.4 11:11:51 11° SSE 11:16:01 51° E 11:20:27 10° NNE
CZ-2C R/B 3.6 11:15:05 10° NNE 11:19:01 51° E 11:22:27 13° S
Cosmos 2322 Rocket 2.2 11:16:39 21° SSW 11:20:30 82° ESE 11:26:13 10° NNE
Meteor 2-10 Rocket 3.6 11:17:31 10° N 11:23:10 78° W 11:28:33 10° S
Cosmos 2058 Rocket 4.0 11:20:50 10° N 11:25:13 50° E 11:29:35 10° SSE
ADEOS II 4.0 11:25:33 10° NW 11:27:37 12° WNW 11:28:45 12° WNW
Cosmos 1726 Rocket 3.5 11:23:21 10° N 11:27:45 85° W 11:32:10 10° S
ARIANE 5 R/B 2.9 11:23:00 10° N 11:27:49 43° WNW 11:30:25 24° SW
Cosmos 1606 Rocket 3.5 11:23:29 10° NNW 11:27:51 63° W 11:31:47 13° S
Cosmos 2228 3.2 11:25:07 10° NNW 11:29:15 47° W 11:31:54 20° SSW
Cosmos 1891 Rocket 4.4 11:23:48 10° NNW 11:29:47 66° W 11:35:43 10° S
Cosmos 2263 Rocket 2.2 11:25:20 10° NNW 11:31:01 86° ENE 11:36:42 10° SSE
CZ-4B R/B 4.4 11:33:11 10° N 11:37:39 32° WNW 11:40:23 20° WSW
NOSS 3-2 (A) 3.6 11:34:58 22° WSW 11:38:22 51° NW 11:44:15 10° NNE
Meteor 1-21 Rocket 4.2 11:34:02 10° S 11:39:39 89° W 11:45:13 10° N
Aureole 2 Rocket 2.3 11:38:28 10° NW 11:40:58 34° WSW 11:41:22 32° SW
Cosmos 2360 Rocket 2.5 11:37:31 10° S 11:43:08 70° ESE 11:48:47 10° NNE
Cosmos 2219 Rocket 4.4 11:39:14 10° SSE 11:43:34 23° E 11:47:56 10° NE
Cosmos 405 4.3 11:42:23 10° NW 11:45:01 20° W 11:45:23 20° W
Tsikada Rocket 4.0 11:39:31 10° S 11:45:56 85° W 11:52:20 10° N
Cosmos 1441 Rocket 4.5 11:42:25 10° SSE 11:46:08 42° E 11:49:53 10° NNE
SWIFT 4.5 11:47:15 11° SSW 11:48:57 13° S 11:50:56 10° SE
CZ-2C R/B 2.9 11:50:16 11° S 11:50:16 11° S 11:50:38 10° S
ADEOS Rocket 4.5 11:46:21 15° SW 11:50:35 24° W 11:56:33 10° NW
USA 238 DEB 3.8 11:46:56 16° SW 11:52:12 58° WNW 11:58:51 10° NNE
Cosmos 2237 4.2 11:46:43 11° SSW 11:52:12 77° WNW 11:57:57 10° NNE
USA 238 3.8 11:47:02 16° SW 11:52:18 59° WNW 11:58:58 10° NNE
Centaur AC-125 4.0 11:52:46 10° SSE 11:53:11 10° SSE 11:53:37 10° SE
ISS -2.8 11:51:18 10° NW 11:54:36 52° NE 11:57:54 10° ESE
